Regional Weather Roundup
Issued by NWS

Home | Current Version | Previous Version | Graphics & Text | Print | Product List | Glossary On
Versions: 1 2 3 4 5 6 7 8 9 10 11 12 13 14 15 16 17 18 19 20 21 22 23 24 25 26 27 28 29 30 31 32 33 34 35 36 37 38 39 40 41 42 43 44 45 46 47 48 49 50
000
ASUS45 KBOU 012207
RWRCO

WEATHER ROUNDUP FOR COLORADO
NATIONAL WEATHER SERVICE DENVER/BOULDER CO
400 PM MDT WED APR 01 2015

NOTE: "FAIR" INDICATES FEW OR NO CLOUDS BELOW 12000 FEET WITH NO
SIGNIFICANT WEATHER AND/OR OBSTRUCTIONS TO VISIBILITY.

COZ001>005-013-030-031-012300-
...NORTHWEST COLORADO...

CITY           SKY/WX    TMP DP  RH WIND       PRES   REMARKS
CRAIG          MOSUNNY   57  22  25 VRB7G23   29.86F
HAYDEN         MOSUNNY   54  19  26 NW12G20   29.87F
MEEKER         MOSUNNY   59  10  14 W12G24    29.88F
MOUNT WERNER   NOT AVBL
STEAMBOAT SPGS CLOUDY    50  21  31 W10G18    29.89S
WALDEN         MOSUNNY   50  21  32 W9G24     29.90R
$$

COZ006>008-011-012300-
...WEST CENTRAL VALLEYS...

CITY           SKY/WX    TMP DP  RH WIND       PRES   REMARKS
GRAND JUNCTION MOSUNNY   67  17  14 W20G30    29.83S
MONTROSE       PTSUNNY   64  22  20 SW21G31   29.88F
EAGLE          MOSUNNY   59  25  27 W17G33    29.88S
RIFLE          MOSUNNY   67  17  14 W23G35    29.81F
DELTA          PTSUNNY   69  15  12 NW16G24   29.82F
NUCLA          PTSUNNY   64  27  24 S16G26    29.93R
$$

COZ017>023-064>068-012300-
...SOUTHWEST COLORADO...

CITY           SKY/WX    TMP DP  RH WIND       PRES   REMARKS
DURANGO        MOSUNNY   66  12  12 W23G33    29.90F
CORTEZ         PTSUNNY   70  13  11 SW17G30   29.88F
PAGOSA SPRINGS MOSUNNY   61   9  13 W22G30    29.95S
TELLURIDE      CLOUDY    47  22  37 W10G16    30.04S
WOLF CREEK PAS CLOUDY    34  14  44 SW35G41   30.11S WCI  19
$$

COZ009-010-012-014-032>034-037-058>063-012300-
...CENTRAL COLORADO...

CITY           SKY/WX    TMP DP  RH WIND       PRES   REMARKS
ASPEN          CLOUDY    42  36  79 SE10      29.95F
BUENA VISTA    PTSUNNY   55  18  23 W28G37    29.90R
COPPER MTN     SNOW      32  27  80 W23G33    30.06R VSB 1/2 WCI  19
BERTHOUD PASS  SNOW      23  18  80 W20G31    30.06R VSB 1/4 WCI   8
COTTONWOOD PAS CLOUDY    43  25  49 N15G31    29.96R HAZE
GUNNISON       CLOUDY    50  27  40 NW23G30   30.00R
KREMMLING      PTSUNNY   52  23  32 N10G20    29.89R
LEADVILLE      LGT SNOW  32  28  85 W12       30.03R FOG     WCI  23
SALIDA         PTSUNNY   64  14  14 W30G38    29.94R
SUNLIGHT       PTSUNNY   41  23  48 CALM      30.06R
WILKERSON PASS CLOUDY    46  16  29 SW8       30.02S
$$

COZ069>075-012300-
...SAN LUIS VALLEY/SANGRE DE CRISTO MOUNTAINS...

CITY           SKY/WX    TMP DP  RH WIND       PRES   REMARKS
ALAMOSA        PTSUNNY   64  17  16 SW29G44   29.88F
LA VETA PASS   CLOUDY    45  19  36 W8G17     29.98S
SAGUACHE       PTSUNNY   63   9  12 NW25G44   29.87F
$$

COZ035-036-038>040-012300-
...NORTHERN COLORADO FRONT RANGE...

CITY           SKY/WX    TMP DP  RH WIND       PRES   REMARKS
DENVER INTL AP PTSUNNY   66  25  21 NW21G30   29.71F
DMNS CITY PARK   N/A     67  22  18 NW9G15    29.71S
AURORA         PTSUNNY   66  26  21 N13       29.73F
FRONT RANGE AP MOSUNNY   68  27  21 W6        29.72F
ERIE MUNI ARPT CLOUDY    70  22  16 SE5       29.71S
BOULDER MUN AP CLOUDY    70  27  19 N3        29.71S
CENTENNIAL     CLOUDY    64  22  20 N13       29.72F
BROOMFIELD     CLOUDY    66  21  18 W6        29.74R
FORT COLLINS   CLOUDY    64  28  25 NW17G24   29.73S
LONGMONT       CLOUDY    69  28  21 NW22G28   29.73R
$$

COZ041-046-047-076>085-087-088-012300-
...PIKES PEAK/PALMER DIVIDE AND SOUTHERN FOOTHILLS...

CITY           SKY/WX    TMP DP  RH WIND       PRES   REMARKS
COLO. SPRINGS  PTSUNNY   69  15  12 SW6       29.73F
A. F. ACADEMY  PTSUNNY   67  16  14 SW5       29.74F
ELLICOTT       NOT AVBL
FALCON         PTSUNNY   69  15  12 W9        29.78F
FORT CARSON    PTSUNNY   73  18  12 SW23      29.69F
LIMON          CLOUDY    70  21  15 W9        29.71S
MONUMENT HILL  PTSUNNY   61  16  17 CALM      29.77F
TRINIDAD       MOSUNNY   76  15  10 SW24G39   29.74F
$$

COZ042>045-048>051-090-091-012300-
...NORTHEAST COLORADO...

CITY           SKY/WX    TMP DP  RH WIND       PRES   REMARKS
GREELEY ARPT   CLOUDY    70  27  19 N22G28    29.69S
AKRON          CLOUDY    71  25  17 N10       29.67F
BURLINGTON     SUNNY     79  21  11 VRB3      29.63F
WRAY           PTSUNNY   77  24  13 N10G16    29.61S
STERLING       CLOUDY    68  30  24 N16G25    29.67R
HOLYOKE        SUNNY     75  28  17 N15       29.64S
FORT MORGAN    CLOUDY    73  25  16 N12G22    29.69S
$$

COZ086-089-092>099-012300-
...SOUTHEAST COLORADO...

CITY           SKY/WX    TMP DP  RH WIND       PRES   REMARKS
PUEBLO         MOSUNNY   73  21  14 S15G22    29.67S
LA JUNTA       MOSUNNY   81  22  11 S6        29.62F
LAMAR          SUNNY     81  22  11 SW13      29.59F
SPRINGFIELD      N/A     80  19  10 SW15G23   29.64F
$$



USA.gov is the U.S. government's official web portal to all federal, state and local government web resources and services.